Flag for Finland Weather past 2 weeks in Mariehamn, Finland

Now
61 °F

Sunny.


Feels Like: 61 °F
Forecast: 50 / 62 °F
Wind: 3 mph from South

Location: Mariehamn / Aland Island

Current Time: Sep 19, 2014 at 11:37:38 AM

Latest Report: Sep 19, 2014 at 10:50 AM


Visibility: 10 mi

Pressure: 30.15 "Hg

Humidity: 77%

Dew point: 54 °F

Location of MariehamnLocation

Historic Weather in Mariehamn — Graph

°F

Mariehamn temperature yesterday

Maximum temperature yesterday: 64 °F (at 1:50 PM)
Minimum temperature yesterday: 41 °F (at 7:50 AM)
Average temperature yesterday: 53 °F

Past Weeks' High & Low Weather Summary

 TemperatureHumidityPressure
High68 °F (Sep 8, 11:50 AM)100% (Sep 5, 9:50 PM)30.48 "Hg (Sep 5, 9:50 PM)
Low39 °F (Sep 14, 5:20 AM)49% (Sep 13, 12:50 PM)29.80 "Hg (Sep 9, 6:20 AM)
Average56 °F87%30.21 "Hg
* Reported Sep 4 10:20 AM — Sep 19 10:20 AM, Mariehamn, Weather by CustomWeather, © 2014

Note: Actual official high and low records may vary slightly from our data, if they occured in-between our weather recording intervals... More about our weather records

Advertising

Mariehamn weather history for previous 24 hours

 ConditionsComfort  
Time TempWeatherWind HumidityBarometerVisibility
10:20 AM
Sep 19
59 °FSunny.1 mph94%30.15 "Hg10 mi
9:50 AM59 °FSunny.No wind100%30.15 "Hg10 mi
9:20 AM54 °FFog.No wind100%30.15 "Hg0 mi
8:50 AM52 °FFog.No wind100%30.15 "Hg0 mi
8:20 AM50 °FFog.No wind100%30.15 "Hg0 mi
7:50 AM50 °FFog.No wind100%30.15 "Hg0 mi
7:20 AM52 °FFog.No wind100%30.15 "Hg0 mi
6:50 AM55 °FFog.No wind100%30.15 "Hg0 mi
6:20 AM55 °FLow clouds.No wind100%30.15 "Hg3 mi
6:01 AM55 °FFog.1 mph100%30.15 "Hg1 mi
5:20 AM55 °FLow clouds.No wind100%30.15 "Hg0 mi
4:50 AM57 °FFog.2 mph100%30.15 "Hg2 mi
4:20 AM59 °FPassing clouds.3 mph100%30.18 "Hg4 mi
3:50 AM59 °FLow clouds.5 mph94%30.18 "Hg4 mi
3:20 AM59 °FPassing clouds.6 mph100%30.18 "Hg5 mi
2:50 AM59 °FPassing clouds.5 mph100%30.18 "Hg5 mi
2:20 AM59 °FPassing clouds.6 mph100%30.18 "Hg5 mi
1:50 AM59 °FLow clouds.5 mph94%30.18 "Hg6 mi
1:20 AM59 °FLow clouds.5 mph100%30.18 "Hg6 mi
12:50 AM52 °FPassing clouds.1 mph100%30.18 "HgN/A
12:20 AM52 °FClear.3 mph100%30.21 "Hg10 mi
11:50 PM
Sep 18
50 °FClear.1 mph100%30.21 "Hg10 mi
11:20 PM50 °FFog.1 mph100%30.21 "Hg2 mi
10:50 PM48 °FClear.No wind94%30.21 "Hg0 mi
10:20 PM50 °FClear.No wind100%30.21 "Hg10 mi
9:50 PM50 °FClear.No wind100%30.21 "Hg10 mi
9:20 PM52 °FFog.No wind100%30.21 "Hg1 mi
8:50 PM57 °FSunny.3 mph100%30.21 "Hg10 mi
8:20 PM59 °FSunny.3 mph94%30.21 "Hg10 mi
7:50 PM59 °FScattered clouds.5 mph94%30.21 "HgN/A
7:20 PM61 °FScattered clouds.7 mph94%30.21 "HgN/A
6:50 PM61 °FScattered clouds.8 mph94%30.21 "HgN/A
6:20 PM63 °FPassing clouds.7 mph83%30.21 "HgN/A
5:50 PM63 °FPassing clouds.8 mph83%30.21 "HgN/A
5:20 PM63 °FPassing clouds.9 mph88%30.21 "HgN/A
4:50 PM63 °FPassing clouds.9 mph83%30.21 "HgN/A
4:20 PM63 °FPassing clouds.10 mph83%30.24 "HgN/A
3:50 PM64 °FPassing clouds.9 mph78%30.24 "HgN/A
3:20 PM64 °FPassing clouds.8 mph73%30.24 "HgN/A
2:50 PM64 °FPassing clouds.8 mph78%30.24 "HgN/A
2:20 PM64 °FPassing clouds.8 mph78%30.24 "HgN/A
1:50 PM64 °FPassing clouds.8 mph78%30.24 "HgN/A
1:20 PM63 °FPassing clouds.8 mph77%30.27 "HgN/A
12:50 PM63 °FPassing clouds.7 mph77%30.27 "HgN/A
12:20 PM63 °FPassing clouds.8 mph77%30.27 "HgN/A
11:50 AM63 °FPassing clouds.8 mph77%30.27 "HgN/A
11:20 AM61 °FScattered clouds.6 mph88%30.27 "HgN/A
Weather by CustomWeather, © 2014

See weather overviewHow to use our weather pages